FW2664 Weather Reports


Display with metric or nautical units.
time (UTC)temp
F
wind
direction
speed
MPH
gust
MPH
rain 1hr
in
rain 24hr
in
rain mn
in
humidity
%
barometer
mb
20260508144944 65 142 2.0 5.0 0.00 0.00 0.00 48 1016.2
20260508144442 64 35 6.0 6.0 0.00 0.00 0.00 47 1016.2
20260508143939 64 95 3.0 6.0 0.00 0.00 0.00 49 1016.5
20260508143437 64 121 5.0 7.0 0.00 0.00 0.00 48 1016.3
20260508142933 64 104 2.0 4.0 0.00 0.00 0.00 49 1016.4
20260508142431 64 110 2.0 2.0 0.00 0.00 0.00 49 1016.5
20260508141926 64 161 1.0 4.0 0.00 0.00 0.00 47 1016.6
20260508141423 64 107 4.0 5.0 0.00 0.00 0.00 49 1016.6
20260508140921 64 118 3.0 4.0 0.00 0.00 0.00 48 1016.7
20260508140418 64 59 3.0 6.0 0.00 0.00 0.00 52 1016.7
20260508135913 64 61 4.0 4.0 0.00 0.00 0.00 51 1016.8
20260508135410 62 105 3.0 4.0 0.00 0.00 0.00 52 1016.8
20260508134907 62 124 5.0 5.0 0.00 0.00 0.00 53 1016.9
20260508134403 61 118 2.0 4.0 0.00 0.00 0.00 56 1016.8
20260508133900 60 94 2.0 3.0 0.00 0.00 0.00 56 1016.9
20260508133358 61 102 3.0 4.0 0.00 0.00 0.00 57 1016.8
20260508132854 62 110 1.0 6.0 0.00 0.00 0.00 56 1016.7
20260508132353 61 39 1.0 5.0 0.00 0.00 0.00 57 1016.8
20260508131849 61 74 1.0 3.0 0.00 0.00 0.00 65 1016.6
20260508131344 60 120 2.0 3.0 0.00 0.00 0.00 68 1016.7
20260508130841 59 98 0.0 4.0 0.00 0.00 0.00 70 1016.7
20260508130338 58 37 2.0 2.0 0.00 0.00 0.00 74 1016.7
20260508125834 57 353 0.0 1.0 0.00 0.00 0.00 78 1016.6
20260508125330 56 290 0.0 2.0 0.00 0.00 0.00 80 1016.7
20260508124828 56 32 0.0 1.0 0.00 0.00 0.00 81 1016.6
20260508124325 55 64 2.0 2.0 0.00 0.00 0.00 82 1016.7
20260508123824 55 109 0.0 1.0 0.00 0.00 0.00 83 1016.7
20260508123322 55 310 0.0 1.0 0.00 0.00 0.00 82 1016.6
20260508122818 54 72 0.0 1.0 0.00 0.00 0.00 83 1016.7
20260508122314 54 71 0.0 2.0 0.00 0.00 0.00 83 1016.6
20260508121812 54 46 0.0 2.0 0.00 0.00 0.00 85 1016.4
20260508121310 53 63 0.0 0.0 0.00 0.00 0.00 85 1016.5
20260508120807 50 93 2.0 2.0 0.00 0.00 0.00 96 1016.5
20260508120305 50 93 2.0 2.0 0.00 0.00 0.00 96 1016.4
20260508115802 50 93 2.0 2.0 0.00 0.00 0.00 96 1016.3
20260508115259 50 93 2.0 2.0 0.00 0.00 0.00 96 1016.1
20260508114756 50 93 2.0 2.0 0.00 0.00 0.00 96 1016.2
20260508114253 50 93 2.0 2.0 0.00 0.00 0.00 96 1016.1
20260508113749 49 75 2.0 2.0 0.00 0.00 0.00 97 1016.1
20260508113248 46 74 2.0 3.0 0.00 0.00 0.00 97 1016.0
20260508112744 46 74 2.0 3.0 0.00 0.00 0.00 97 1016.0
20260508112241 46 74 2.0 3.0 0.00 0.00 0.00 97 1015.8
20260508111737 46 62 2.0 2.0 0.00 0.00 0.00 97 1015.8
20260508111235 46 62 2.0 2.0 0.00 0.00 0.00 97 1015.8
20260508110732 46 92 2.0 2.0 0.00 0.00 0.00 97 1015.8
20260508110230 46 78 2.0 2.0 0.00 0.00 0.00 97 1015.7
20260508105729 46 81 2.0 2.0 0.00 0.00 0.00 97 1015.5
20260508105227 46 75 2.0 2.0 0.00 0.00 0.00 97 1015.5
20260508104724 46 53 2.0 2.0 0.00 0.00 0.00 97 1015.5
20260508104221 46 87 1.0 2.0 0.00 0.00 0.00 97 1015.6
20260508103718 46 31 2.0 3.0 0.00 0.00 0.00 97 1015.4
20260508103215 45 81 2.0 2.0 0.00 0.00 0.00 97 1015.5
20260508102712 45 87 2.0 2.0 0.00 0.00 0.00 97 1015.4
20260508102210 44 74 3.0 3.0 0.00 0.00 0.00 97 1015.5
20260508101707 44 85 2.0 3.0 0.00 0.00 0.00 97 1015.5
20260508101205 44 78 2.0 3.0 0.00 0.00 0.00 96 1015.5
20260508100702 43 65 2.0 3.0 0.00 0.00 0.00 96 1015.3
20260508100200 42 68 2.0 3.0 0.00 0.00 0.00 96 1015.4
20260508095656 42 84 2.0 2.0 0.00 0.00 0.00 96 1015.1
20260508095153 42 99 2.0 2.0 0.00 0.00 0.00 96 1015.1
20260508094650 42 88 2.0 2.0 0.00 0.00 0.00 96 1015.2
20260508094147 42 81 2.0 2.0 0.00 0.00 0.00 95 1014.9
20260508093644 43 84 2.0 2.0 0.00 0.00 0.00 95 1014.9
20260508093142 43 81 2.0 2.0 0.00 0.00 0.00 95 1015.0
20260508092639 43 69 2.0 2.0 0.00 0.00 0.00 95 1015.2
20260508092137 43 81 2.0 2.0 0.00 0.00 0.00 95 1015.0
20260508091634 43 73 2.0 2.0 0.00 0.00 0.00 95 1015.0
20260508091131 43 80 2.0 2.0 0.00 0.00 0.00 95 1015.1
20260508090629 44 71 2.0 2.0 0.00 0.00 0.00 95 1015.0
20260508090126 44 73 2.0 2.0 0.00 0.00 0.00 95 1014.9
20260508085622 44 66 2.0 3.0 0.00 0.00 0.00 95 1014.8
20260508085120 44 79 2.0 2.0 0.00 0.00 0.00 94 1014.9
20260508084616 44 75 2.0 3.0 0.00 0.00 0.00 94 1014.8
20260508084114 44 73 2.0 3.0 0.00 0.00 0.00 94 1015.1
20260508083610 44 73 2.0 3.0 0.00 0.00 0.00 94 1015.2
20260508083108 44 67 2.0 2.0 0.00 0.00 0.00 94 1015.1
20260508082603 44 84 2.0 2.0 0.00 0.00 0.00 94 1015.0
20260508082100 44 82 2.0 3.0 0.00 0.00 0.00 94 1015.0
20260508081558 45 87 2.0 2.0 0.00 0.00 0.00 94 1015.1
20260508081054 45 66 3.0 3.0 0.00 0.00 0.00 94 1015.1
20260508080552 45 69 2.0 3.0 0.00 0.00 0.00 93 1015.1
20260508080049 45 70 2.0 3.0 0.00 0.00 0.00 93 1015.2
20260508075545 45 66 3.0 3.0 0.00 0.00 0.00 93 1015.2
20260508075043 45 66 3.0 3.0 0.00 0.00 0.00 93 1015.2
20260508074541 45 80 2.0 2.0 0.00 0.00 0.00 92 1015.3
20260508074037 45 75 2.0 3.0 0.00 0.00 0.00 93 1015.2
20260508073534 45 63 2.0 2.0 0.00 0.00 0.00 92 1015.4
20260508073032 45 66 1.0 2.0 0.00 0.00 0.00 92 1015.3
20260508072528 46 82 2.0 3.0 0.00 0.00 0.00 92 1015.3
20260508072025 45 98 2.0 2.0 0.00 0.00 0.00 91 1015.3
20260508071523 45 83 2.0 2.0 0.00 0.00 0.00 91 1015.2
20260508071020 46 82 2.0 2.0 0.00 0.00 0.00 90 1015.1
20260508070518 46 76 2.0 3.0 0.00 0.00 0.00 90 1015.1
20260508070016 46 58 3.0 3.0 0.00 0.00 0.00 90 1015.1
20260508065514 46 58 2.0 3.0 0.00 0.00 0.00 89 1015.4
20260508065012 46 62 2.0 3.0 0.00 0.00 0.00 89 1015.4
20260508064509 46 74 2.0 3.0 0.00 0.00 0.00 89 1015.4
20260508064007 46 71 2.0 2.0 0.00 0.00 0.00 88 1015.5
20260508063504 46 75 2.0 3.0 0.00 0.00 0.00 88 1015.6
20260508063001 46 66 3.0 3.0 0.00 0.00 0.00 88 1015.5
20260508062459 46 65 2.0 2.0 0.00 0.00 0.00 88 1015.4
20260508061955 46 80 2.0 3.0 0.00 0.00 0.00 87 1015.5
20260508061454 46 82 2.0 2.0 0.00 0.00 0.00 86 1015.8
20260508060949 46 86 2.0 2.0 0.00 0.00 0.00 85 1015.6
20260508060447 46 86 2.0 3.0 0.00 0.00 0.00 84 1015.5
20260508055943 46 80 2.0 2.0 0.00 0.00 0.00 84 1015.4
20260508055439 46 64 3.0 3.0 0.00 0.00 0.00 84 1015.4
20260508054936 46 77 2.0 3.0 0.00 0.00 0.00 85 1015.5
20260508054433 46 70 3.0 3.0 0.00 0.00 0.00 85 1015.7
20260508053930 46 87 2.0 3.0 0.00 0.00 0.00 85 1015.6
20260508053427 46 78 2.0 2.0 0.00 0.00 0.00 85 1015.7
20260508052925 46 69 2.0 2.0 0.00 0.00 0.00 84 1015.5
20260508052422 47 81 2.0 3.0 0.00 0.00 0.00 84 1015.4
20260508051918 47 80 2.0 3.0 0.00 0.00 0.00 83 1015.5
20260508051414 47 84 1.0 2.0 0.00 0.00 0.00 83 1015.3
20260508050910 47 79 1.0 2.0 0.00 0.00 0.00 82 1015.3
20260508050407 47 77 2.0 2.0 0.00 0.00 0.00 81 1015.4
20260508045903 47 77 2.0 2.0 0.00 0.00 0.00 81 1015.2
20260508045401 47 77 2.0 2.0 0.00 0.00 0.00 81 1015.4
20260508044858 48 72 2.0 3.0 0.00 0.00 0.00 81 1015.3
20260508044355 48 72 2.0 3.0 0.00 0.00 0.00 81 1015.5
20260508043850 48 74 2.0 3.0 0.00 0.00 0.00 82 1015.4
20260508043348 48 79 2.0 2.0 0.00 0.00 0.00 81 1015.5
20260508042844 48 76 2.0 2.0 0.00 0.00 0.00 80 1015.6
20260508042342 48 85 2.0 2.0 0.00 0.00 0.00 80 1015.6
20260508041839 48 81 2.0 2.0 0.00 0.00 0.00 79 1015.7
20260508041335 48 81 2.0 2.0 0.00 0.00 0.00 80 1015.8
20260508040832 49 75 2.0 2.0 0.00 0.00 0.00 78 1015.7
20260508040330 49 75 2.0 2.0 0.00 0.00 0.00 78 1015.8
20260508035827 49 75 2.0 2.0 0.00 0.00 0.00 78 1015.7
20260508035324 49 83 2.0 2.0 0.00 0.00 0.00 78 1015.6
20260508034821 49 75 1.0 2.0 0.00 0.00 0.00 76 1015.5
20260508034318 49 75 2.0 2.0 0.00 0.00 0.00 77 1015.6
20260508033814 49 73 2.0 2.0 0.00 0.00 0.00 77 1015.5
20260508033313 50 60 2.0 2.0 0.00 0.00 0.00 77 1015.5
20260508032810 50 87 2.0 3.0 0.00 0.00 0.00 76 1015.5
20260508032307 50 69 1.0 2.0 0.00 0.00 0.00 75 1015.5
20260508031804 50 61 2.0 2.0 0.00 0.00 0.00 75 1015.2
20260508031301 51 71 2.0 3.0 0.00 0.00 0.00 73 1015.3
20260508030757 51 80 2.0 2.0 0.00 0.00 0.00 74 1015.2
20260508030254 51 80 2.0 2.0 0.00 0.00 0.00 74 1015.3
20260508025751 51 70 2.0 2.0 0.00 0.00 0.00 74 1015.1
20260508025248 51 77 2.0 2.0 0.00 0.00 0.00 71 1015.3
20260508024744 51 77 2.0 2.0 0.00 0.00 0.00 71 1015.2
20260508024241 52 83 2.0 2.0 0.00 0.00 0.00 70 1015.1
20260508023738 54 63 2.0 2.0 0.00 0.00 0.00 66 1015.1
20260508023235 54 63 2.0 2.0 0.00 0.00 0.00 66 1015.1
20260508022731 54 63 2.0 2.0 0.00 0.00 0.00 66 1014.7
20260508022228 54 63 2.0 2.0 0.00 0.00 0.00 66 1014.8
20260508021724 54 63 2.0 2.0 0.00 0.00 0.00 66 1014.9
20260508021220 54 63 2.0 2.0 0.00 0.00 0.00 66 1014.9
20260508020717 54 63 2.0 2.0 0.00 0.00 0.00 66 1015.1
20260508020214 54 63 2.0 2.0 0.00 0.00 0.00 66 1014.9
20260508015712 54 80 2.0 3.0 0.00 0.00 0.00 66 1015.1
20260508015209 54 77 2.0 2.0 0.00 0.00 0.00 66 1015.1
20260508014705 54 74 2.0 3.0 0.00 0.00 0.00 64 1014.9
20260508014202 54 62 2.0 2.0 0.00 0.00 0.00 65 1015.0
20260508013658 55 82 2.0 2.0 0.00 0.00 0.00 64 1014.8
20260508013154 55 64 2.0 3.0 0.00 0.00 0.00 62 1014.6
20260508012652 55 75 2.0 3.0 0.00 0.00 0.00 61 1014.6
20260508012149 56 73 2.0 2.0 0.00 0.00 0.00 61 1014.4
20260508011648 56 78 2.0 2.0 0.00 0.00 0.00 59 1014.4
20260508011144 57 75 2.0 2.0 0.00 0.00 0.00 56 1014.3
20260508010641 57 80 2.0 2.0 0.00 0.00 0.00 56 1014.2
20260508010139 58 72 2.0 2.0 0.00 0.00 0.00 55 1014.1
20260508005636 58 71 2.0 2.0 0.00 0.00 0.00 55 1014.0
20260508005132 59 84 2.0 2.0 0.00 0.00 0.00 51 1014.1
20260508004628 59 86 2.0 2.0 0.00 0.00 0.00 49 1014.1
20260508004125 60 86 2.0 2.0 0.00 0.00 0.00 49 1014.0
20260508003621 61 72 1.0 2.0 0.00 0.00 0.00 50 1014.2
20260508003119 62 83 2.0 2.0 0.00 0.00 0.00 49 1014.2
20260508002615 62 82 2.0 2.0 0.00 0.00 0.00 45 1014.0
20260508002113 64 45 2.0 2.0 0.00 0.00 0.00 44 1014.0
20260508001608 64 26 3.0 3.0 0.00 0.00 0.00 41 1013.8
20260508001104 64 34 2.0 3.0 0.00 0.00 0.00 43 1013.6
20260508000600 64 49 2.0 3.0 0.00 0.00 0.00 42 1013.8
20260508000058 64 64 1.0 2.0 0.00 0.00 0.00 43 1013.7
20260507235555 64 33 2.0 2.0 0.00 0.00 0.00 42 1013.7
20260507235052 64 17 3.0 3.0 0.00 0.00 0.00 42 1013.5
20260507234548 64 217 0.0 4.0 0.00 0.00 0.00 42 1013.4
20260507234045 65 1 2.0 4.0 0.00 0.00 0.00 40 1013.5
20260507233542 66 121 0.0 3.0 0.00 0.00 0.00 40 1013.4
20260507233041 67 10 2.0 4.0 0.00 0.00 0.00 37 1013.2
20260507232536 68 49 2.0 3.0 0.00 0.00 0.00 40 1013.2
20260507232034 68 52 2.0 4.0 0.00 0.00 0.00 38 1013.5
20260507231530 68 282 2.0 2.0 0.00 0.00 0.00 39 1013.4
20260507231027 68 258 4.0 5.0 0.00 0.00 0.00 37 1013.6
20260507230524 68 282 0.0 2.0 0.00 0.00 0.00 40 1013.4
20260507230021 67 6 2.0 6.0 0.00 0.00 0.00 38 1013.5
20260507225515 68 194 1.0 3.0 0.00 0.00 0.00 37 1013.5
20260507225012 68 308 1.0 3.0 0.00 0.00 0.00 40 1013.6
20260507224508 67 352 3.0 3.0 0.00 0.00 0.00 39 1013.5
20260507224005 67 280 4.0 4.0 0.00 0.00 0.00 42 1013.4
20260507223500 68 36 2.0 3.0 0.00 0.00 0.00 39 1013.4
20260507222958 68 74 2.0 3.0 0.00 0.00 0.00 38 1013.5
20260507222455 68 337 3.0 4.0 0.00 0.00 0.00 38 1013.5
20260507221951 69 355 2.0 6.0 0.00 0.00 0.00 36 1013.5
20260507221448 69 269 0.0 3.0 0.00 0.00 0.00 37 1013.6
20260507220944 69 83 2.0 5.0 0.00 0.00 0.00 37 1013.6
20260507220442 69 263 2.0 5.0 0.00 0.00 0.00 36 1013.7
20260507215938 69 278 0.0 6.0 0.00 0.00 0.00 36 1013.7
20260507215435 69 357 2.0 4.0 0.00 0.00 0.00 35 1013.9
20260507214932 69 46 1.0 5.0 0.00 0.00 0.00 35 1013.7
20260507214430 69 339 1.0 5.0 0.00 0.00 0.00 36 1013.6
20260507213925 69 218 2.0 3.0 0.00 0.00 0.00 40 1013.6
20260507213422 68 16 1.0 5.0 0.00 0.00 0.00 36 1013.8
20260507212919 69 315 4.0 5.0 0.00 0.00 0.00 37 1013.5
20260507212415 69 301 1.0 4.0 0.00 0.00 0.00 36 1013.4
20260507211912 70 234 2.0 3.0 0.00 0.00 0.00 38 1013.3
20260507211408 70 36 0.0 3.0 0.00 0.00 0.00 37 1013.3
20260507210905 69 45 2.0 3.0 0.00 0.00 0.00 41 1013.3
20260507210402 68 48 4.0 8.0 0.00 0.00 0.00 38 1013.4
20260507205859 68 359 3.0 4.0 0.00 0.00 0.00 39 1013.3
20260507205356 68 40 5.0 6.0 0.00 0.00 0.00 40 1013.2
20260507204852 69 327 3.0 6.0 0.00 0.00 0.00 37 1013.6
20260507204349 69 5 2.0 6.0 0.00 0.00 0.00 37 1013.4
20260507203847 69 274 2.0 6.0 0.00 0.00 0.00 35 1013.5
20260507203344 68 315 2.0 5.0 0.00 0.00 0.00 38 1013.4
20260507202840 68 7 2.0 5.0 0.00 0.00 0.00 36 1013.5
20260507202337 68 353 3.0 4.0 0.00 0.00 0.00 37 1013.6
20260507201832 68 43 4.0 4.0 0.00 0.00 0.00 41 1013.5
20260507201328 68 59 2.0 6.0 0.00 0.00 0.00 39 1013.5
20260507200825 68 33 2.0 9.0 0.00 0.00 0.00 36 1013.6
20260507200321 67 264 4.0 6.0 0.00 0.00 0.00 39 1013.7
20260507195817 68 231 3.0 5.0 0.00 0.00 0.00 40 1013.6
20260507195315 68 286 4.0 5.0 0.00 0.00 0.00 39 1013.6
20260507194812 67 3 4.0 4.0 0.00 0.00 0.00 38 1013.6
20260507194308 67 340 5.0 5.0 0.00 0.00 0.00 37 1013.6
20260507193804 67 8 2.0 6.0 0.00 0.00 0.00 38 1013.7
20260507193301 67 355 4.0 6.0 0.00 0.00 0.00 37 1013.8
20260507192757 68 314 1.0 5.0 0.00 0.00 0.00 40 1013.8
20260507192254 68 34 3.0 4.0 0.00 0.00 0.00 40 1013.7
20260507191750 68 42 3.0 4.0 0.00 0.00 0.00 40 1013.9
20260507191247 67 287 2.0 4.0 0.00 0.00 0.00 39 1014.0
20260507190744 67 318 3.0 5.0 0.00 0.00 0.00 38 1014.0
20260507190243 68 34 4.0 6.0 0.00 0.00 0.00 38 1013.9
20260507185741 67 66 4.0 6.0 0.00 0.00 0.00 41 1013.8
20260507185237 68 47 3.0 5.0 0.00 0.00 0.00 38 1014.0
20260507184735 67 310 0.0 3.0 0.00 0.00 0.00 47 1014.1
20260507184233 66 294 2.0 6.0 0.00 0.00 0.00 41 1014.1
20260507183729 66 28 2.0 7.0 0.00 0.00 0.00 41 1014.0
20260507183226 67 67 7.0 9.0 0.00 0.00 0.00 43 1014.2
20260507182723 66 225 3.0 3.0 0.00 0.00 0.00 40 1014.0
20260507182218 66 341 2.0 5.0 0.00 0.00 0.00 39 1014.2
20260507181715 66 358 3.0 4.0 0.00 0.00 0.00 41 1014.1
20260507181212 66 332 2.0 4.0 0.00 0.00 0.00 45 1014.2
20260507180709 66 299 4.0 6.0 0.00 0.00 0.00 39 1014.1
20260507180206 65 74 3.0 6.0 0.00 0.00 0.00 41 1014.0
20260507175701 65 353 3.0 4.0 0.00 0.00 0.00 40 1014.1
20260507175158 65 260 1.0 5.0 0.00 0.00 0.00 42 1014.3
20260507174655 66 273 0.0 2.0 0.00 0.00 0.00 43 1014.3
20260507174154 66 8 2.0 5.0 0.00 0.00 0.00 43 1014.4
20260507173650 66 358 2.0 4.0 0.00 0.00 0.00 43 1014.5
20260507173147 65 80 4.0 6.0 0.00 0.00 0.00 46 1014.6
20260507172644 66 3 2.0 4.0 0.00 0.00 0.00 44 1014.8
20260507172141 66 316 6.0 6.0 0.00 0.00 0.00 42 1014.8
20260507171641 65 331 4.0 4.0 0.00 0.00 0.00 44 1014.9
20260507171139 64 355 4.0 5.0 0.00 0.00 0.00 42 1014.7
20260507170636 64 19 1.0 7.0 0.00 0.00 0.00 44 1014.9
20260507170133 65 356 4.0 5.0 0.00 0.00 0.00 43 1014.8
20260507165628 65 171 1.0 7.0 0.00 0.00 0.00 43 1015.0
20260507165125 66 340 2.0 5.0 0.00 0.00 0.00 45 1015.0
20260507164620 65 22 3.0 4.0 0.00 0.00 0.00 45 1014.9
20260507164118 64 314 4.0 5.0 0.00 0.00 0.00 45 1014.9
20260507163615 64 334 6.0 7.0 0.00 0.00 0.00 43 1014.9
20260507163113 64 60 3.0 6.0 0.00 0.00 0.00 48 1014.9
20260507162608 64 83 4.0 4.0 0.00 0.00 0.00 46 1015.1
20260507162105 64 342 8.0 9.0 0.00 0.00 0.00 43 1015.0
20260507161601 65 1 3.0 6.0 0.00 0.00 0.00 47 1015.0
20260507161057 64 41 0.0 4.0 0.00 0.00 0.00 48 1015.2
20260507160554 63 344 3.0 3.0 0.00 0.00 0.00 46 1015.0
20260507160050 63 307 2.0 4.0 0.00 0.00 0.00 48 1015.2
20260507155546 64 88 4.0 7.0 0.00 0.00 0.00 46 1015.2
20260507155043 64 10 2.0 4.0 0.00 0.00 0.00 44 1015.1
20260507154540 64 71 5.0 7.0 0.00 0.00 0.00 48 1015.3
20260507154037 63 82 5.0 6.0 0.00 0.00 0.00 48 1015.2
20260507153534 62 88 4.0 5.0 0.00 0.00 0.00 49 1015.1
20260507153030 62 304 3.0 8.0 0.00 0.00 0.00 51 1015.1
20260507152526 62 356 2.0 3.0 0.00 0.00 0.00 50 1015.2
20260507152022 62 314 3.0 6.0 0.00 0.00 0.00 50 1015.2
20260507151519 62 49 4.0 6.0 0.00 0.00 0.00 53 1015.2
20260507151016 62 338 5.0 8.0 0.00 0.00 0.00 46 1015.4
20260507150513 62 25 3.0 5.0 0.00 0.00 0.00 49 1015.2
20260507150009 63 345 4.0 4.0 0.00 0.00 0.00 48 1015.3
20260507145504 62 64 4.0 6.0 0.00 0.00 0.00 50 1015.2